M I D A S
Marine Information and Data Acquisition System
Tripno 631 of the Zeeleeuw from 2004-01-21 07:43:08 to 2004-01-21 15:52:35
Back to CruiseResearch ActivitiesStationsMapUnderway DataData graphs

EquipmentUnitsComment
TimeDGPSUTC
LatitudeDGPSDM.mWGS84
LongitudeDGPSDM.mWGS84
TemperatureSBE03/SBE38deg celciusITS90
ConductivitySBE21S/mITS90
SalinitySBE21 Practical Salinity Units
ChlorophylAChelsea fluorimeterg/lCalibrated in Aceton
Missing or incorrect values are displayed as -999
Sea surface data collected by the RV Zeeleeuw from 2004-01-21 07:43:08 to 2004-01-21 15:52:35
Time Latitude Longitude Temperature Conductivity Salinity ChlorophylA
2004-01-21 07:44:10 51°14.038 2°55.479 -999 -999 -999 -999
2004-01-21 07:45:07 51°14.154 2°55.392 -999 -999 -999 -999
2004-01-21 07:46:09 51°14.29 2°55.219 -999 -999 -999 -999
2004-01-21 07:47:09 51°14.381 2°54.957 -999 -999 -999 -999
2004-01-21 07:48:09 51°14.391 2°54.613 -999 -999 -999 -999
2004-01-21 07:49:07 51°14.306 2°54.28 -999 -999 -999 -999
2004-01-21 07:50:10 51°14.174 2°53.943 -999 -999 -999 -999
2004-01-21 07:51:10 51°14.043 2°53.625 -999 -999 -999 -999
2004-01-21 07:52:08 51°13.933 2°53.298 -999 -999 -999 -999
2004-01-21 07:53:09 51°13.817 2°52.95 -999 -999 -999 -999
2004-01-21 07:54:10 51°13.701 2°52.598 -999 -999 -999 -999
2004-01-21 07:55:10 51°13.586 2°52.248 -999 -999 -999 -999
2004-01-21 07:56:10 51°13.474 2°51.897 -999 -999 -999 -999
2004-01-21 07:57:09 51°13.359 2°51.551 -999 -999 -999 -999
2004-01-21 07:58:10 51°13.239 2°51.193 -999 -999 -999 -999
2004-01-21 07:59:10 51°13.118 2°50.844 -999 -999 -999 -999
2004-01-21 08:00:09 51°12.998 2°50.503 -999 -999 -999 -999
2004-01-21 08:01:09 51°12.876 2°50.156 -999 -999 -999 -999
2004-01-21 08:02:10 51°12.753 2°49.802 -999 -999 -999 -999
2004-01-21 08:03:10 51°12.633 2°49.455 -999 -999 -999 -999
2004-01-21 08:04:10 51°12.513 2°49.112 -999 -999 -999 -999
2004-01-21 08:05:08 51°12.401 2°48.779 -999 -999 -999 -999
2004-01-21 08:06:09 51°12.298 2°48.414 -999 -999 -999 -999
2004-01-21 08:07:10 51°12.195 2°48.046 -999 -999 -999 -999
2004-01-21 08:08:10 51°12.105 2°47.679 -999 -999 -999 -999
2004-01-21 08:09:10 51°12.021 2°47.307 -999 -999 -999 -999
2004-01-21 08:10:10 51°11.941 2°46.929 -999 -999 -999 -999
2004-01-21 08:11:09 51°11.863 2°46.557 -999 -999 -999 -999
2004-01-21 08:12:10 51°11.782 2°46.171 -999 -999 -999 -999
2004-01-21 08:13:10 51°11.702 2°45.79 -999 -999 -999 -999
2004-01-21 08:14:10 51°11.623 2°45.411 -999 -999 -999 -999
2004-01-21 08:15:09 51°11.546 2°45.037 -999 -999 -999 -999
2004-01-21 08:16:09 51°11.469 2°44.657 -999 -999 -999 -999
2004-01-21 08:17:09 51°11.398 2°44.274 -999 -999 -999 -999
2004-01-21 08:18:09 51°11.327 2°43.891 -999 -999 -999 -999
2004-01-21 08:19:09 51°11.249 2°43.514 -999 -999 -999 -999
2004-01-21 08:20:10 51°11.169 2°43.134 -999 -999 -999 -999
2004-01-21 08:21:09 51°11.09 2°42.768 -999 -999 -999 -999
2004-01-21 08:22:10 51°11.023 2°42.387 -999 -999 -999 -999
2004-01-21 08:23:10 51°11.109 2°42.209 -999 -999 -999 -999
2004-01-21 08:24:09 51°11.163 2°42.232 -999 -999 -999 -999
2004-01-21 08:25:09 51°11.175 2°42.225 -999 -999 -999 -999
2004-01-21 08:26:09 51°11.185 2°42.216 -999 -999 -999 -999
2004-01-21 08:27:08 51°11.178 2°42.193 -999 -999 -999 -999
2004-01-21 08:28:09 51°11.156 2°42.156 -999 -999 -999 -999
2004-01-21 08:29:10 51°11.157 2°42.137 -999 -999 -999 -999
2004-01-21 08:30:10 51°11.166 2°42.126 -999 -999 -999 -999
2004-01-21 08:31:10 51°11.174 2°42.118 -999 -999 -999 -999
2004-01-21 08:32:10 51°11.179 2°42.117 -999 -999 -999 -999
2004-01-21 08:33:08 51°11.186 2°42.119 -999 -999 -999 -999
2004-01-21 08:34:10 51°11.193 2°42.126 -999 -999 -999 -999
2004-01-21 08:35:10 51°11.2 2°42.134 -999 -999 -999 -999
2004-01-21 08:36:08 51°11.206 2°42.145 -999 -999 -999 -999
2004-01-21 08:37:09 51°11.209 2°42.164 -999 -999 -999 -999
2004-01-21 08:38:09 51°11.165 2°42.221 -999 -999 -999 -999
2004-01-21 08:39:07 51°11.099 2°42.122 -999 -999 -999 -999
2004-01-21 08:40:08 51°11.051 2°41.816 -999 -999 -999 -999
2004-01-21 08:41:10 51°10.994 2°41.434 -999 -999 -999 -999
2004-01-21 08:42:10 51°10.938 2°41.061 -999 -999 -999 -999
2004-01-21 08:43:08 51°10.882 2°40.701 -999 -999 -999 -999
2004-01-21 08:44:08 51°10.819 2°40.329 -999 -999 -999 -999
2004-01-21 08:45:07 51°10.758 2°39.963 -999 -999 -999 -999
2004-01-21 08:46:09 51°10.693 2°39.577 -999 -999 -999 -999
2004-01-21 08:47:08 51°10.632 2°39.209 -999 -999 -999 -999
2004-01-21 08:48:08 51°10.568 2°38.836 -999 -999 -999 -999
2004-01-21 08:49:09 51°10.506 2°38.46 -999 -999 -999 -999
2004-01-21 08:50:09 51°10.438 2°38.095 -999 -999 -999 -999
2004-01-21 08:51:09 51°10.368 2°37.734 -999 -999 -999 -999
2004-01-21 08:52:10 51°10.298 2°37.368 -999 -999 -999 -999
2004-01-21 08:53:09 51°10.232 2°37.015 -999 -999 -999 -999
2004-01-21 08:54:10 51°10.163 2°36.651 -999 -999 -999 -999
2004-01-21 08:55:09 51°10.096 2°36.298 -999 -999 -999 -999
2004-01-21 08:56:09 51°10.11 2°35.933 -999 -999 -999 -999
2004-01-21 08:57:09 51°10.25 2°35.657 -999 -999 -999 -999
2004-01-21 08:58:10 51°10.466 2°35.589 -999 -999 -999 -999
2004-01-21 08:59:10 51°10.667 2°35.72 -999 -999 -999 -999
2004-01-21 09:00:08 51°10.852 2°35.895 -999 -999 -999 -999
2004-01-21 09:01:19 51°11.077 2°36.111 -999 -999 -999 -999
2004-01-21 09:02:29 51°11.298 2°36.327 -999 -999 -999 -999
2004-01-21 09:03:29 51°11.487 2°36.513 -999 -999 -999 -999
2004-01-21 09:04:28 51°11.673 2°36.696 -999 -999 -999 -999
2004-01-21 09:05:29 51°11.865 2°36.885 -999 -999 -999 -999
2004-01-21 09:06:28 51°12.051 2°37.069 -999 -999 -999 -999
2004-01-21 09:07:28 51°12.24 2°37.254 -999 -999 -999 -999
2004-01-21 09:08:29 51°12.433 2°37.442 -999 -999 -999 -999
2004-01-21 09:09:28 51°12.619 2°37.623 -999 -999 -999 -999
2004-01-21 09:10:28 51°12.809 2°37.809 -999 -999 -999 -999
2004-01-21 09:11:28 51°12.999 2°37.994 -999 -999 -999 -999
2004-01-21 09:16:34 51°13.995 2°38.808 -999 -999 -999 -999
2004-01-21 09:17:34 51°14.203 2°38.701 -999 -999 -999 -999
2004-01-21 09:18:34 51°14.413 2°38.58 -999 -999 -999 -999
2004-01-21 09:19:32 51°14.611 2°38.448 -999 -999 -999 -999
2004-01-21 09:20:34 51°14.822 2°38.303 -999 -999 -999 -999
2004-01-21 09:21:33 51°15.021 2°38.159 -999 -999 -999 -999
2004-01-21 09:22:31 51°15.213 2°38.008 -999 -999 -999 -999
2004-01-21 09:23:39 51°15.437 2°37.824 -999 -999 -999 -999
2004-01-21 09:24:41 51°15.643 2°37.658 -999 -999 -999 -999
2004-01-21 09:29:19 51°16.531 2°36.908 -999 -999 -999 -999
2004-01-21 09:30:21 51°16.6 2°36.776 -999 -999 -999 -999
2004-01-21 09:31:19 51°16.601 2°36.75 -999 -999 -999 -999
2004-01-21 09:32:23 51°16.597 2°36.76 -999 -999 -999 -999
2004-01-21 09:33:26 51°16.596 2°36.754 -999 -999 -999 -999
2004-01-21 09:34:24 51°16.597 2°36.741 -999 -999 -999 -999
2004-01-21 09:35:23 51°16.596 2°36.723 -999 -999 -999 -999
2004-01-21 09:36:25 51°16.596 2°36.711 -999 -999 -999 -999
2004-01-21 09:37:26 51°16.6 2°36.722 -999 -999 -999 -999
2004-01-21 09:38:26 51°16.603 2°36.743 -999 -999 -999 -999
2004-01-21 09:39:26 51°16.605 2°36.75 -999 -999 -999 -999
2004-01-21 09:40:26 51°16.608 2°36.748 -999 -999 -999 -999
2004-01-21 09:41:26 51°16.61 2°36.739 -999 -999 -999 -999
2004-01-21 09:42:26 51°16.611 2°36.727 -999 -999 -999 -999
2004-01-21 09:43:26 51°16.599 2°36.653 -999 -999 -999 -999
2004-01-21 09:44:24 51°16.619 2°36.399 -999 -999 -999 -999
2004-01-21 09:45:25 51°16.727 2°36.082 -999 -999 -999 -999
2004-01-21 09:46:24 51°16.842 2°35.774 -999 -999 -999 -999
2004-01-21 09:47:26 51°16.991 2°35.486 -999 -999 -999 -999
2004-01-21 09:48:25 51°17.145 2°35.237 -999 -999 -999 -999
2004-01-21 09:49:23 51°17.296 2°34.999 -999 -999 -999 -999
2004-01-21 09:50:26 51°17.462 2°34.743 -999 -999 -999 -999
2004-01-21 09:51:23 51°17.614 2°34.511 -999 -999 -999 -999
2004-01-21 09:52:25 51°17.782 2°34.247 -999 -999 -999 -999
2004-01-21 09:53:26 51°17.95 2°33.989 -999 -999 -999 -999
2004-01-21 09:54:24 51°18.108 2°33.74 -999 -999 -999 -999
2004-01-21 09:55:26 51°18.257 2°33.454 -999 -999 -999 -999
2004-01-21 09:56:26 51°18.398 2°33.176 -999 -999 -999 -999
2004-01-21 10:04:08 51°19.5 2°30.994 -999 -999 -999 -999
2004-01-21 10:10:47 51°19.973 2°30.029 7.982533 3.606409 34.6989 1.982922
2004-01-21 10:11:47 51°20.017 2°29.944 7.985823 3.606093 34.697175 2.016631
2004-01-21 10:12:47 51°20.034 2°29.971 7.989065 3.606515 34.699199 2.016631
2004-01-21 10:13:47 51°20.049 2°30.001 7.99129 3.606515 34.69671 1.881794
2004-01-21 10:14:47 51°20.063 2°30.033 7.994435 3.607042 34.698203 1.814375
2004-01-21 10:15:48 51°20.076 2°30.072 7.997627 3.606936 34.695416 1.780665
2004-01-21 10:16:47 51°20.088 2°30.11 7.997724 3.607252 34.696312 1.713247
2004-01-21 10:17:51 51°20.107 2°30.162 8.004158 3.607884 34.699762 1.679537
2004-01-21 10:18:59 51°20.151 2°30.213 8.006963 3.607884 34.694787 1.679537
2004-01-21 10:19:59 51°20.213 2°30.206 8.004545 3.608411 34.697938 1.814375
2004-01-21 10:20:59 51°20.316 2°30.318 8.002658 3.608517 34.703211 1.848084
2004-01-21 10:21:59 51°20.447 2°30.536 7.998063 3.608622 34.701851 1.881794
2004-01-21 10:22:59 51°20.577 2°30.864 7.980259 3.607779 34.701122 1.814375
2004-01-21 10:24:00 51°20.672 2°31.243 7.95727 3.605567 34.697341 1.848084
2004-01-21 10:24:59 51°20.743 2°31.619 7.943086 3.603038 34.691002 2.050341
2004-01-21 10:25:59 51°20.82 2°31.995 7.931369 3.60209 34.692465 1.982922
2004-01-21 10:26:59 51°20.899 2°32.365 7.926768 3.600931 34.691671 2.050341
2004-01-21 10:27:59 51°20.98 2°32.729 7.939745 3.600615 34.687451 2.08405
2004-01-21 10:29:00 51°21.062 2°33.1 7.967483 3.602195 34.689442 2.117759
2004-01-21 10:29:59 51°21.141 2°33.46 8.000336 3.605883 34.699896 1.949212
2004-01-21 10:31:00 51°21.224 2°33.83 8.008704 3.609465 34.71502 2.050341
2004-01-21 10:31:59 51°21.303 2°34.189 8.000868 3.61094 34.725001 2.016631
2004-01-21 10:33:00 51°21.388 2°34.564 7.970242 3.609676 34.725574 2.151469
2004-01-21 10:34:00 51°21.474 2°34.937 7.922313 3.605988 34.71763 2.08405
2004-01-21 10:34:59 51°21.558 2°35.303 7.925557 3.600931 34.704137 2.08405
2004-01-21 10:35:59 51°21.642 2°35.676 7.96366 3.601563 34.691802 1.982922
2004-01-21 10:36:59 51°21.727 2°36.049 7.980114 3.60525 34.699765 2.151469
2004-01-21 10:37:59 51°21.823 2°36.41 7.982097 3.607252 34.709586 2.117759
2004-01-21 10:38:59 51°21.984 2°36.712 7.988968 3.607674 34.714099 2.08405
2004-01-21 10:39:59 51°22.137 2°37.028 8.002078 3.608622 34.714293 2.050341
2004-01-21 10:40:59 51°22.292 2°37.339 8.013734 3.610413 34.721022 2.050341
2004-01-21 10:42:00 51°22.453 2°37.65 8.020214 3.611467 34.723173 1.982922
2004-01-21 10:42:59 51°22.637 2°37.907 8.031626 3.612521 34.726153 2.08405
2004-01-21 10:43:59 51°22.822 2°38.17 8.049851 3.614312 34.733705 2.050341
2004-01-21 10:45:00 51°23.001 2°38.449 8.070632 3.616314 34.735217 2.050341
2004-01-21 10:45:59 51°23.176 2°38.72 8.077782 3.618526 34.741468 2.050341
2004-01-21 10:46:59 51°23.335 2°39.027 8.083 3.620001 34.746461 1.915503
2004-01-21 10:47:59 51°23.471 2°39.368 8.088942 3.62116 34.75553 1.915503
2004-01-21 10:49:00 51°23.591 2°39.735 8.087686 3.621371 34.754468 1.915503
2004-01-21 10:50:00 51°23.706 2°40.098 8.085126 3.620844 34.750497 1.915503
2004-01-21 10:50:59 51°23.81 2°40.461 8.086237 3.620423 34.747651 1.982922
2004-01-21 10:51:59 51°23.919 2°40.831 8.08643 3.621266 34.754999 1.949212
2004-01-21 10:53:00 51°24.031 2°41.207 8.075802 3.62095 34.754108 1.915503
2004-01-21 10:53:59 51°24.141 2°41.57 8.052896 3.620107 34.757529 2.08405
2004-01-21 10:54:59 51°24.251 2°41.939 8.016636 3.617367 34.758921 1.982922
2004-01-21 10:55:59 51°24.364 2°42.309 7.976871 3.613891 34.754088 2.151469
2004-01-21 10:56:59 51°24.474 2°42.681 7.922603 3.609887 34.752753 2.252597
2004-01-21 10:58:00 51°24.588 2°43.06 7.87047 3.604197 34.745831 2.286306
2004-01-21 10:58:59 51°24.697 2°43.425 7.820187 3.597981 34.726581 2.387435
2004-01-21 10:59:59 51°24.808 2°43.798 7.78627 3.592608 34.718869 2.421144
2004-01-21 11:00:59 51°24.919 2°44.172 7.756901 3.58871 34.707819 2.555982
2004-01-21 11:01:59 51°25.02 2°44.553 7.737087 3.58576 34.69945 2.555982
2004-01-21 11:02:59 51°25.12 2°44.931 7.72057 3.583336 34.695915 2.522272
2004-01-21 11:03:59 51°25.22 2°45.311 7.702349 3.580808 34.685389 2.555982
2004-01-21 11:05:00 51°25.331 2°45.691 7.684949 3.579017 34.681972 2.488563
2004-01-21 11:06:00 51°25.443 2°46.063 7.67965 3.577436 34.678317 2.589691
2004-01-21 11:06:59 51°25.554 2°46.429 7.668467 3.575751 34.670175 2.555982
2004-01-21 11:07:59 51°25.667 2°46.799 7.662973 3.575013 34.669751 2.65711
2004-01-21 11:08:59 51°25.779 2°47.172 7.655338 3.574592 34.671901 2.589691
2004-01-21 11:09:59 51°25.894 2°47.544 7.648918 3.573854 34.67064 2.589691
2004-01-21 11:10:59 51°25.998 2°47.924 7.640552 3.573011 34.665729 2.65711
2004-01-21 11:11:59 51°26.07 2°48.246 7.631552 3.572168 34.665005 2.65711
2004-01-21 11:12:59 51°26.097 2°48.498 7.640892 3.571326 34.663443 2.690819
2004-01-21 11:13:59 51°26.018 2°48.547 7.618755 3.569113 34.644577 2.758238
2004-01-21 11:14:59 51°26 2°48.509 7.61929 3.569429 34.659719 2.724529
2004-01-21 11:16:00 51°26.017 2°48.507 7.625324 3.569851 34.662596 2.65711
2004-01-21 11:17:00 51°26.033 2°48.509 7.626492 3.570483 34.660206 2.724529
2004-01-21 11:17:59 51°26.046 2°48.516 7.624643 3.570483 34.66272 2.724529
2004-01-21 11:18:59 51°26.058 2°48.527 7.62221 3.570377 34.664934 2.555982
2004-01-21 11:20:00 51°26.07 2°48.542 7.62401 3.570167 34.662658 2.522272
2004-01-21 11:20:59 51°26.081 2°48.559 7.624254 3.570167 34.66182 2.65711
2004-01-21 11:22:00 51°26.093 2°48.577 7.623134 3.570061 34.659844 2.454853
2004-01-21 11:23:00 51°26.104 2°48.597 7.622697 3.570061 34.662358 2.65711
2004-01-21 11:23:59 51°26.084 2°48.615 7.624886 3.570377 34.664934 2.6234
2004-01-21 11:24:59 51°26.064 2°48.77 7.624545 3.570061 34.663196 2.65711
2004-01-21 11:25:59 51°26.123 2°49.109 7.630579 3.570167 34.660982 2.724529
2004-01-21 11:26:59 51°26.183 2°49.512 7.624448 3.570483 34.661882 2.791947
2004-01-21 11:27:59 51°26.24 2°49.916 7.606491 3.569745 34.663134 2.724529
2004-01-21 11:29:00 51°26.297 2°50.328 7.596854 3.568165 34.657795 2.791947
2004-01-21 11:29:59 51°26.348 2°50.727 7.577136 3.567428 34.66492 2.791947
2004-01-21 11:31:00 51°26.406 2°51.141 7.563306 3.566058 34.666894 2.65711
2004-01-21 11:32:00 51°26.461 2°51.545 7.545966 3.565005 34.668932 2.589691
2004-01-21 11:32:59 51°26.516 2°51.942 7.53286 3.563424 34.664431 2.690819
2004-01-21 11:33:59 51°26.57 2°52.346 7.519069 3.561949 34.664431 2.522272
2004-01-21 11:34:59 51°26.624 2°52.75 7.501521 3.560158 34.657647 2.589691
2004-01-21 11:35:59 51°26.679 2°53.154 7.474751 3.557946 34.655544 2.555982
2004-01-21 11:36:59 51°26.733 2°53.555 7.424645 3.554785 34.65579 2.522272
2004-01-21 11:38:00 51°26.789 2°53.965 7.361455 3.54857 34.645639 2.454853
2004-01-21 11:38:59 51°26.85 2°54.357 7.186699 3.540563 34.615161 2.353725
2004-01-21 11:40:00 51°26.911 2°54.764 7.027182 3.508747 34.495779 2.185178
2004-01-21 11:41:00 51°26.971 2°55.162 6.992892 3.487782 34.354489 2.08405
2004-01-21 11:42:00 51°27.031 2°55.56 6.944717 3.479249 34.303323 2.151469
2004-01-21 11:42:59 51°27.087 2°55.949 6.91112 3.470716 34.255455 2.08405
2004-01-21 11:44:17 51°27.165 2°56.465 6.889713 3.462921 34.205444 2.050341
2004-01-21 11:45:17 51°27.228 2°56.861 6.838061 3.460182 34.188907 2.185178
2004-01-21 11:46:17 51°27.298 2°57.254 6.646055 3.437428 34.06054 1.645828
2004-01-21 11:47:16 51°27.366 2°57.639 6.645215 3.400454 33.769618 1.645828
2004-01-21 11:48:17 51°27.433 2°58.038 6.680532 3.40056 33.75396 1.814375
2004-01-21 11:49:17 51°27.5 2°58.432 6.674952 3.410145 33.837716 1.949212
2004-01-21 11:50:16 51°27.564 2°58.82 6.663543 3.410672 33.848573 1.848084
2004-01-21 11:51:17 51°27.629 2°59.22 6.675742 3.407933 33.830181 2.016631
2004-01-21 11:52:15 51°27.693 2°59.597 6.655491 3.411725 33.850914 2.050341
2004-01-21 11:53:17 51°27.765 2°59.998 6.555326 3.402772 33.796014 1.780665
2004-01-21 11:54:17 51°27.838 3°0.386 6.446479 3.369487 33.557168 1.679537
2004-01-21 11:55:17 51°27.911 3°0.774 6.394664 3.345261 33.357975 1.679537
2004-01-21 11:56:17 51°27.984 3°1.165 6.310281 3.33178 33.294847 1.645828
2004-01-21 11:57:17 51°28.056 3°1.556 6.308891 3.325145 33.258927 1.645828
2004-01-21 11:58:17 51°28.127 3°1.948 6.309338 3.324829 33.262957 1.645828
2004-01-21 11:59:17 51°28.195 3°2.343 6.327365 3.327778 33.283955 1.645828
2004-01-21 12:00:17 51°28.262 3°2.739 6.3368 3.332623 33.327651 1.645828
2004-01-21 12:01:17 51°28.318 3°3.058 6.324535 3.335678 33.359022 1.578409
2004-01-21 12:02:17 51°28.37 3°3.336 6.296869 3.335888 33.372274 1.645828
2004-01-21 12:03:17 51°28.323 3°3.49 6.263177 3.33157 33.345332 1.612118
2004-01-21 12:04:17 51°28.297 3°3.44 6.250152 3.32641 33.324124 1.51099
2004-01-21 12:05:17 51°28.318 3°3.432 6.25925 3.324303 33.309114 1.51099
2004-01-21 12:06:15 51°28.34 3°3.427 6.289466 3.326199 33.312543 1.477281
2004-01-21 12:07:23 51°28.359 3°3.427 6.293391 3.329885 33.336696 1.376153
2004-01-21 12:08:23 51°28.371 3°3.434 6.295528 3.331676 33.350701 1.578409
2004-01-21 12:09:23 51°28.381 3°3.444 6.299601 3.332518 33.358378 1.443571
2004-01-21 12:10:23 51°28.389 3°3.458 6.312616 3.333571 33.364192 1.409862
2004-01-21 12:11:23 51°28.397 3°3.477 6.316043 3.335151 33.373331 1.578409
2004-01-21 12:12:23 51°28.404 3°3.502 6.320215 3.335994 33.379324 1.5447
2004-01-21 12:13:23 51°28.411 3°3.531 6.330543 3.337047 33.386814 1.51099
2004-01-21 12:14:23 51°28.42 3°3.564 6.339629 3.339153 33.397589 1.612118
2004-01-21 12:15:23 51°28.43 3°3.603 6.341268 3.340839 33.411246 1.578409
2004-01-21 12:16:23 51°28.439 3°3.648 6.338835 3.341471 33.417418 1.51099
2004-01-21 12:17:23 51°28.444 3°3.687 6.338537 3.340839 33.412087 1.409862
2004-01-21 12:18:23 51°28.447 3°3.707 6.354969 3.341365 33.412887 1.477281
2004-01-21 12:19:23 51°28.446 3°3.713 6.359088 3.343261 33.424675 1.409862
2004-01-21 12:20:23 51°28.413 3°3.668 6.366582 3.344209 33.426786 1.578409
2004-01-21 12:21:23 51°28.353 3°3.581 6.372487 3.346105 33.442769 1.612118
2004-01-21 12:22:23 51°28.296 3°3.508 6.376308 3.346631 33.446087 1.578409
2004-01-21 12:23:23 51°28.296 3°3.483 6.387223 3.347579 33.447353 1.645828
2004-01-21 12:24:23 51°28.302 3°3.474 6.395359 3.348949 33.453288 1.5447
2004-01-21 12:25:23 51°28.304 3°3.476 6.403543 3.349264 33.45343 1.5447
2004-01-21 12:26:28 51°28.305 3°3.482 6.41118 3.350212 33.450495 1.612118
2004-01-21 12:27:28 51°28.306 3°3.491 6.416684 3.350318 33.446624 1.578409
2004-01-21 12:28:28 51°28.293 3°3.466 6.413015 3.350423 33.445273 1.5447
2004-01-21 12:29:28 51°28.372 3°3.385 6.418569 3.34958 33.435939 1.679537
2004-01-21 12:30:27 51°28.446 3°3.545 6.403394 3.350001 33.429699 1.612118
2004-01-21 12:31:27 51°28.371 3°3.84 6.413461 3.34937 33.442839 1.645828
2004-01-21 12:32:28 51°28.229 3°4.141 6.401211 3.350739 33.45549 1.679537
2004-01-21 12:33:27 51°28.095 3°4.444 6.46209 3.354847 33.474956 2.286306
2004-01-21 12:34:28 51°27.957 3°4.756 6.440333 3.36222 33.538102 2.185178
2004-01-21 12:35:28 51°27.826 3°5.066 6.358741 3.357059 33.512898 2.050341
2004-01-21 12:36:28 51°27.693 3°5.372 6.310927 3.342103 33.418546 2.454853
2004-01-21 12:37:28 51°27.56 3°5.677 6.270781 3.333361 33.365214 2.522272
2004-01-21 12:38:28 51°27.428 3°5.984 6.167668 3.319353 33.282641 2.218888
2004-01-21 12:39:28 51°27.303 3°6.301 6.115575 3.303345 33.176687 2.252597
2004-01-21 12:40:27 51°27.181 3°6.611 6.095991 3.293971 33.104137 2.286306
2004-01-21 12:41:51 51°27.003 3°7.045 6.09011 3.287126 33.047112 2.522272
2004-01-21 12:42:51 51°26.877 3°7.353 6.075554 3.283229 33.014556 3.263879
2004-01-21 12:43:51 51°26.76 3°7.674 6.086172 3.278911 32.972273 3.23017
2004-01-21 12:44:51 51°26.66 3°7.988 6.107602 3.278384 32.953868 3.162751
2004-01-21 12:45:51 51°26.575 3°8.256 6.125289 3.280174 32.955444 3.23017
2004-01-21 12:46:55 51°26.499 3°8.29 6.160001 3.282912 32.957562 3.23017
2004-01-21 12:47:57 51°26.477 3°8.246 6.18698 3.285545 32.966012 3.095332
2004-01-21 12:48:56 51°26.479 3°8.233 6.209968 3.288283 32.970627 3.129042
2004-01-21 12:49:57 51°26.478 3°8.222 6.25408 3.291337 32.975421 2.960494
2004-01-21 12:50:57 51°26.475 3°8.217 6.271179 3.294707 32.977066 2.960494
2004-01-21 12:52:03 51°26.472 3°8.219 6.285243 3.296813 32.983811 2.960494
2004-01-21 12:53:17 51°26.47 3°8.225 6.297018 3.298498 32.990035 2.994204
2004-01-21 12:54:23 51°26.449 3°8.214 6.30437 3.299551 32.994235 2.994204
2004-01-21 12:55:33 51°26.372 3°8.376 6.318427 3.300289 32.998255 3.23017
2004-01-21 12:56:31 51°26.306 3°8.704 6.320513 3.302079 32.998995 3.297589
2004-01-21 12:57:33 51°26.227 3°9.069 6.294137 3.301552 32.999803 3.162751
2004-01-21 12:58:33 51°26.148 3°9.42 6.21345 3.297972 33.005814 2.893076
2004-01-21 12:59:33 51°26.066 3°9.768 6.133259 3.291443 33.000752 2.724529
2004-01-21 13:00:31 51°25.986 3°10.103 6.07002 3.283439 32.985964 2.6234
2004-01-21 13:01:43 51°25.886 3°10.518 6.037903 3.274172 32.938654 2.724529
2004-01-21 13:03:11 51°25.667 3°10.909 6.020491 3.266589 32.885811 2.893076
2004-01-21 13:04:11 51°25.502 3°11.158 6.034461 3.265852 32.878419 2.825657
2004-01-21 13:05:11 51°25.336 3°11.408 6.058951 3.268274 32.89292 2.522272
2004-01-21 13:06:11 51°25.206 3°11.7 6.08707 3.272381 32.916182 2.454853
2004-01-21 13:07:32 51°25.216 3°12.206 6.098583 3.277542 32.945314 2.353725
2004-01-21 13:08:31 51°25.259 3°12.577 6.071366 3.277015 32.946127 2.387435
2004-01-21 13:09:36 51°25.307 3°12.987 6.046832 3.271118 32.906265 2.387435
2004-01-21 13:10:35 51°25.348 3°13.359 6.064436 3.268169 32.881727 2.421144
2004-01-21 13:11:37 51°25.388 3°13.75 6.040098 3.267642 32.870014 2.252597
2004-01-21 13:12:35 51°25.434 3°14.114 6.007866 3.265431 32.869544 2.185178
2004-01-21 13:13:35 51°25.484 3°14.491 5.987201 3.261113 32.852242 2.151469
2004-01-21 13:14:37 51°25.535 3°14.878 6.005371 3.257743 32.819621 2.218888
2004-01-21 13:15:37 51°25.587 3°15.254 6.050672 3.258691 32.814353 2.218888
2004-01-21 13:16:47 51°25.645 3°15.692 6.126983 3.265852 32.823399 2.252597
2004-01-21 13:17:47 51°25.697 3°16.067 6.137941 3.271012 32.839269 2.286306
2004-01-21 13:18:51 51°25.75 3°16.469 6.139535 3.272275 32.847512 2.353725
2004-01-21 13:19:51 51°25.8 3°16.844 6.147005 3.272697 32.848042 2.353725
2004-01-21 13:20:51 51°25.849 3°17.22 6.160001 3.273328 32.846759 2.454853
2004-01-21 13:22:11 51°25.922 3°17.652 6.174736 3.274381 32.841025 2.791947
2004-01-21 13:23:31 51°25.905 3°17.828 6.18265 3.273328 32.815208 2.589691
2004-01-21 13:24:31 51°25.876 3°17.843 6.186035 3.272801 32.807698 2.589691
2004-01-21 13:25:31 51°25.878 3°17.841 6.189916 3.273012 32.807551 2.758238
2004-01-21 13:26:39 51°25.88 3°17.828 6.192952 3.273117 32.808721 2.926785
2004-01-21 13:27:38 51°25.88 3°17.82 6.200863 3.27417 32.8055 2.65711
2004-01-21 13:28:38 51°25.882 3°17.817 6.201013 3.275224 32.817197 2.589691
2004-01-21 13:29:42 51°25.885 3°17.817 6.197629 3.275224 32.819685 2.522272
2004-01-21 13:30:42 51°25.871 3°17.818 6.196982 3.275118 32.821002 2.555982
2004-01-21 13:31:42 51°25.786 3°17.78 6.196982 3.275961 32.827874 2.522272
2004-01-21 13:32:42 51°25.626 3°17.589 6.192404 3.274697 32.815493 2.320016
2004-01-21 13:34:03 51°25.409 3°17.285 6.186084 3.266588 32.733697 2.353725
2004-01-21 13:35:03 51°25.255 3°17.045 6.192355 3.266693 32.731558 2.454853
2004-01-21 13:36:22 51°25.051 3°16.734 6.209769 3.277541 32.857045 2.454853
2004-01-21 13:37:21 51°24.899 3°16.505 6.248163 3.283122 32.889994 2.65711
2004-01-21 13:38:22 51°24.744 3°16.269 6.246175 3.281963 32.844786 2.6234
2004-01-21 13:39:39 51°24.546 3°15.965 6.225886 3.270168 32.73129 2.6234
2004-01-21 13:40:41 51°24.385 3°15.72 6.178221 3.26427 32.678237 2.690819
2004-01-21 13:41:41 51°24.223 3°15.495 6.06668 3.241418 32.49371 2.65711
2004-01-21 13:42:47 51°24.049 3°15.249 6.008215 3.196979 32.103764 2.859366
2004-01-21 13:43:47 51°23.889 3°15.027 5.977365 3.178446 31.931803 3.432426
2004-01-21 13:44:48 51°23.729 3°14.798 5.949147 3.166232 31.825908 3.19646
2004-01-21 13:45:48 51°23.621 3°14.514 5.892724 3.153386 31.710441 2.65711
2004-01-21 13:46:47 51°23.521 3°14.224 5.883374 3.133275 31.527656 2.6234
2004-01-21 13:47:47 51°23.393 3°13.955 5.877223 3.128748 31.488493 2.65711
2004-01-21 13:48:48 51°23.223 3°13.742 5.855014 3.128221 31.48263 2.6234
2004-01-21 13:49:47 51°23.049 3°13.555 5.809072 3.115482 31.380031 2.690819
2004-01-21 13:50:59 51°22.823 3°13.407 5.790946 3.097372 31.213411 2.758238
2004-01-21 13:51:59 51°22.66 3°13.315 5.798908 3.091792 31.156006 3.297589
2004-01-21 13:52:58 51°22.636 3°13.232 5.780979 3.065998 30.872675 3.499845
2004-01-21 13:54:01 51°22.642 3°13.24 5.780078 3.04768 30.675906 3.533554
2004-01-21 13:55:02 51°22.646 3°13.246 5.783634 3.049154 30.692303 3.600973
2004-01-21 13:56:01 51°22.648 3°13.249 5.790144 3.048101 30.673529 3.533554
2004-01-21 13:57:11 51°22.646 3°13.251 5.791597 3.044943 30.638404 3.398717
2004-01-21 13:58:11 51°22.643 3°13.251 5.803013 3.042521 30.609131 3.331298
2004-01-21 13:59:11 51°22.635 3°13.246 5.810974 3.038837 30.559571 3.331298
2004-01-21 14:00:11 51°22.592 3°13.077 5.7936 3.034626 30.506538 3.398717
2004-01-21 14:01:11 51°22.537 3°12.756 5.787089 3.039363 30.573236 3.634683
2004-01-21 14:02:24 51°22.485 3°12.345 5.783433 3.04389 30.631398 3.836939
2004-01-21 14:03:55 51°22.425 3°11.826 5.801461 3.031468 30.4886 3.904358
2004-01-21 14:04:55 51°22.39 3°11.474 5.811274 3.010624 30.24856 3.634683
2004-01-21 14:05:55 51°22.356 3°11.117 5.805667 2.982412 29.927996 3.297589
2004-01-21 14:06:55 51°22.319 3°10.765 5.770209 2.974623 29.854664 3.365007
2004-01-21 14:07:55 51°22.289 3°10.412 5.772313 3.050312 30.715402 3.432426
2004-01-21 14:08:56 51°22.257 3°10.053 5.783183 3.078422 31.023706 3.263879
2004-01-21 14:09:55 51°22.227 3°9.704 5.801461 3.092529 31.1698 3.499845
2004-01-21 14:10:55 51°22.197 3°9.351 5.812426 3.1039 31.284577 3.466136
2004-01-21 14:12:11 51°22.157 3°8.909 5.817732 3.106322 31.300371 3.365007
2004-01-21 14:13:11 51°22.125 3°8.559 5.817982 3.106006 31.296051 3.19646
2004-01-21 14:14:11 51°22.091 3°8.208 5.820435 3.106638 31.302292 3.331298
2004-01-21 14:15:11 51°22.04 3°7.865 5.833398 3.104532 31.277225 3.668392
2004-01-21 14:16:11 51°21.988 3°7.521 5.856815 3.111059 31.328362 3.634683
2004-01-21 14:17:20 51°21.916 3°7.132 5.870021 3.118429 31.392838 3.263879
2004-01-21 14:18:19 51°21.854 3°6.799 5.873722 3.121904 31.423516 3.129042
2004-01-21 14:19:19 51°21.792 3°6.458 5.872872 3.121062 31.413335 3.061623
2004-01-21 14:20:23 51°21.725 3°6.094 5.84851 3.12064 31.413455 2.893076
2004-01-21 14:21:23 51°21.657 3°5.757 5.855915 3.112639 31.342754 3.129042
2004-01-21 14:22:23 51°21.589 3°5.419 5.861868 3.114639 31.352229 3.365007
2004-01-21 14:23:23 51°21.52 3°5.081 5.852113 3.114744 31.355802 3.19646
2004-01-21 14:24:34 51°21.439 3°4.684 5.861768 3.11306 31.337842 3.263879
2004-01-21 14:25:34 51°21.373 3°4.349 5.889274 3.117271 31.373534 3.331298
2004-01-21 14:26:35 51°21.306 3°4.01 5.896974 3.124325 31.438453 3.331298
2004-01-21 14:27:35 51°21.239 3°3.677 5.918168 3.126852 31.453751 3.331298
2004-01-21 14:28:34 51°21.172 3°3.345 5.907572 3.134644 31.517985 3.398717
2004-01-21 14:29:34 51°21.105 3°3.006 5.889574 3.13138 31.497722 3.365007
2004-01-21 14:30:35 51°21.034 3°2.659 5.881874 3.123167 31.431973 3.19646
2004-01-21 14:31:34 51°20.965 3°2.319 5.945001 3.125168 31.435804 3.702101
2004-01-21 14:32:34 51°20.894 3°1.975 5.964881 3.13875 31.554834 3.80323
2004-01-21 14:33:34 51°20.822 3°1.63 5.929812 3.149911 31.641962 3.80323
2004-01-21 14:34:34 51°20.752 3°1.284 5.934359 3.134433 31.523673 3.76952
2004-01-21 14:35:35 51°20.679 3°0.932 5.917069 3.14054 31.566708 3.702101
2004-01-21 14:36:34 51°20.61 3°0.589 5.919568 3.136118 31.535189 3.533554
2004-01-21 14:37:34 51°20.538 3°0.243 5.957689 3.137592 31.547573 3.533554
2004-01-21 14:38:34 51°20.458 2°59.903 6.068375 3.152438 31.655565 3.297589
2004-01-21 14:39:54 51°20.353 2°59.448 6.096689 3.182868 31.90964 3.668392
2004-01-21 14:40:54 51°20.275 2°59.106 6.152731 3.188133 31.954317 3.331298
2004-01-21 14:41:55 51°20.195 2°58.761 6.232749 3.215195 32.163569 3.23017
2004-01-21 14:42:55 51°20.118 2°58.419 6.233246 3.23215 32.328636 2.791947
2004-01-21 14:43:55 51°20.04 2°58.078 6.276248 3.239311 32.388377 2.724529
2004-01-21 14:44:51 51°19.966 2°57.76 6.341814 3.256476 32.530195 2.6234
2004-01-21 14:45:54 51°19.883 2°57.401 6.403443 3.279645 32.730761 2.859366
2004-01-21 14:46:53 51°19.805 2°57.064 6.466797 3.307555 32.963475 2.758238
2004-01-21 14:48:01 51°19.718 2°56.671 6.504838 3.331674 33.181077 2.555982
2004-01-21 14:49:07 51°19.632 2°56.289 6.565518 3.347473 33.313964 2.522272
2004-01-21 14:50:06 51°19.556 2°55.947 6.651687 3.374226 33.547463 2.218888
2004-01-21 14:51:07 51°19.477 2°55.595 6.663395 3.402983 33.802548 1.949212
2004-01-21 14:52:07 51°19.399 2°55.249 6.67594 3.409303 33.857079 2.050341
2004-01-21 14:53:07 51°19.322 2°54.902 6.700578 3.410672 33.856157 2.117759
2004-01-21 14:54:07 51°19.244 2°54.555 6.747113 3.41478 33.873617 2.218888
2004-01-21 14:55:07 51°19.167 2°54.209 6.834367 3.428895 33.967485 2.218888
2004-01-21 14:56:39 51°19.051 2°53.679 6.905855 3.463237 34.23515 2.117759
2004-01-21 14:57:39 51°18.974 2°53.334 6.929175 3.474404 34.332357 2.218888
2004-01-21 14:58:39 51°18.898 2°52.988 6.94393 3.478196 34.349381 2.286306
2004-01-21 14:59:39 51°18.822 2°52.644 6.950716 3.477564 34.33481 2.151469
2004-01-21 15:00:39 51°18.746 2°52.298 6.974855 3.476826 34.313159 2.050341
2004-01-21 15:01:54 51°18.659 2°51.863 7.010039 3.481145 34.324102 2.185178
2004-01-21 15:02:55 51°18.603 2°51.575 7.023106 3.48694 34.365573 2.218888
2004-01-21 15:03:54 51°18.561 2°51.386 7.02561 3.490943 34.399258 2.08405
2004-01-21 15:04:55 51°18.52 2°51.221 7.025512 3.492523 34.415719 2.08405
2004-01-21 15:05:55 51°18.501 2°51.084 7.025905 3.492102 34.410256 1.982922
2004-01-21 15:06:54 51°18.5 2°51.007 7.025905 3.491364 34.400484 1.915503
2004-01-21 15:08:03 51°18.514 2°51.002 7.031995 3.491259 34.395941 1.848084
2004-01-21 15:09:04 51°18.527 2°50.993 7.032584 3.491154 34.392247 1.780665
2004-01-21 15:10:04 51°18.538 2°50.982 7.036218 3.49147 34.394013 1.713247
2004-01-21 15:11:04 51°18.544 2°50.963 7.037151 3.491575 34.392626 1.713247
2004-01-21 15:12:06 51°18.541 2°50.939 7.033567 3.49147 34.391472 1.848084
2004-01-21 15:13:05 51°18.509 2°50.926 7.033075 3.49168 34.394626 1.814375
2004-01-21 15:14:05 51°18.379 2°51.084 7.033026 3.491575 34.393473 1.881794
2004-01-21 15:15:03 51°18.213 2°51.293 7.021976 3.490627 34.382245 1.848084
2004-01-21 15:16:03 51°18.037 2°51.506 6.998592 3.487045 34.356568 1.814375
2004-01-21 15:17:05 51°17.854 2°51.725 6.946438 3.480619 34.325102 1.881794
2004-01-21 15:18:03 51°17.683 2°51.928 6.925682 3.474193 34.295281 1.915503
2004-01-21 15:19:05 51°17.497 2°52.146 6.924502 3.474088 34.307682 1.881794
2004-01-21 15:20:05 51°17.325 2°52.37 6.897539 3.476195 34.335047 1.814375
2004-01-21 15:21:03 51°17.172 2°52.608 6.83481 3.459234 34.193721 1.679537
2004-01-21 15:22:04 51°17.014 2°52.864 6.799381 3.433424 33.955795 1.51099
2004-01-21 15:23:03 51°16.871 2°53.12 6.776556 3.418361 33.823902 1.5447
2004-01-21 15:24:04 51°16.72 2°53.396 6.761072 3.406668 33.720546 1.578409
2004-01-21 15:25:05 51°16.573 2°53.676 6.755942 3.400032 33.652633 1.51099
2004-01-21 15:26:05 51°16.445 2°53.963 6.735026 3.39624 33.618477 1.376153
2004-01-21 15:27:03 51°16.369 2°54.144 6.716867 3.37749 33.432442 1.342443
2004-01-21 15:28:03 51°16.298 2°54.191 6.709809 3.356739 33.223563 1.376153
2004-01-21 15:29:03 51°16.233 2°54.243 6.706156 3.351368 33.169523 1.409862
2004-01-21 15:30:05 51°16.209 2°54.264 6.697912 3.349577 33.154806 1.51099
2004-01-21 15:31:03 51°16.21 2°54.256 6.704576 3.349788 33.160418 1.376153
2004-01-21 15:32:03 51°16.217 2°54.246 6.70892 3.351684 33.174642 1.376153
2004-01-21 15:33:04 51°16.227 2°54.243 6.709167 3.354738 33.206538 1.376153
2004-01-21 15:34:03 51°16.234 2°54.237 6.712918 3.356002 33.22042 1.342443
2004-01-21 15:35:05 51°16.242 2°54.228 6.709414 3.356424 33.225048 1.275024
2004-01-21 15:36:05 51°16.248 2°54.214 6.71198 3.355476 33.217114 1.376153
2004-01-21 15:37:05 51°16.243 2°54.181 6.715929 3.35695 33.226702 1.241315
2004-01-21 15:38:04 51°16.125 2°54.146 6.705268 3.35695 33.228354 1.308734
2004-01-21 15:39:03 51°15.926 2°54.211 6.702651 3.351684 33.180417 1.51099
2004-01-21 15:40:05 51°15.696 2°54.283 6.719877 3.347365 33.127222 1.477281
2004-01-21 15:41:04 51°15.472 2°54.329 6.732559 3.350314 33.148891 1.207606
2004-01-21 15:42:05 51°15.247 2°54.405 6.74805 3.366746 33.302851 1.173896
2004-01-21 15:43:05 51°15.028 2°54.478 6.724318 3.34905 33.112796 1.241315
2004-01-21 15:44:04 51°14.815 2°54.572 6.715633 3.332724 32.952601 1.578409
2004-01-21 15:45:03 51°14.616 2°54.724 6.682458 3.322297 32.852146 1.746956
2004-01-21 15:46:05 51°14.441 2°54.938 6.642151 3.306499 32.718806 2.050341
2004-01-21 15:47:03 51°14.315 2°55.166 6.57922 3.271006 32.372397 2.421144
2004-01-21 15:48:05 51°14.212 2°55.345 6.550725 3.139796 30.984683 2.825657
2004-01-21 15:49:04 51°14.114 2°55.427 6.547805 3.085152 30.400965 3.297589
2004-01-21 15:50:05 51°14.016 2°55.496 6.532463 2.977774 29.243601 3.23017
2004-01-21 15:51:04 51°13.923 2°55.564 6.534047 2.823061 27.581309 3.23017
2004-01-21 15:52:03 51°13.83 2°55.64 6.834268 0.059533 0.450183 -0.882377